This demonstration page uses our WeatherBlox Daily Observations layout. Learn more.

Left ArrowRight Arrow

36.19886, -115.1175

Hourly Observations for January 22, 2021

Temp ( °F °C ) Dew Point ( °F °C ) Humidity (%) Winds ( mph kmh ) Pressure ( in mb ) Visibility ( mi km ) Precip ( " mm )
12:53 am 00:53 Clear 46 7.8 30 -1.1 54 54 WNW 5 7 29.94 1014 10 16.0934 0 0
1:53 am 01:53 Clear 45 7.2 31 -0.6 58 58 WNW 6 9 29.94 1014 10 16.0934 0 0
2:53 am 02:53 Clear 46 7.8 30 -1.1 54 54 WNW 5 7 29.92 1013 10 16.0934 0 0
3:53 am 03:53 Clear 47 8.3 31 -0.6 54 54 NNW 3 6 29.9 1012 10 16.0934 0 0
4:53 am 04:53 Clear 47 8.3 32 0 56 56 NE 3 6 29.88 1012 10 16.0934 0 0
5:53 am 05:53 Clear 47 8.3 33 0.6 59 59 Calm 29.89 1012 10 16.0934 0 0
6:53 am 06:53 Sunny 49 9.4 34 1.1 56 56 Calm 29.89 1012 10 16.0934 0 0
7:53 am 07:53 Sunny 50 10 35 1.7 57 57 ESE 5 7 29.88 1012 10 16.0934 0 0
8:53 am 08:53 Sunny 52 11.1 36 2.2 55 55 E 5 7 29.9 1012 10 16.0934 0 0
9:53 am 09:53 Sunny 57 13.9 39 3.9 51 51 E 12 19 29.88 1012 10 16.0934 0 0
10:53 am 10:53 Sunny 62 16.7 32 0 32 32 SSE 12 19 29.85 1011 10 16.0934 0 0
11:53 am 11:53 Sunny 62 16.7 25 -3.9 24 24 S 12 19 29.81 1010 10 16.0934 0 0
12:53 pm 12:53 Sunny 64 17.8 29 -1.7 27 27 S 21 33 29.77 1008 10 16.0934 0 0
1:53 pm 13:53 Sunny 63 17.2 34 1.1 34 34 SSE 16 26 29.74 1007 10 16.0934 0 0
2:53 pm 14:53 Partly Cloudy 62 16.7 40 4.4 44 44 SSE 20 31 29.74 1007 10 16.0934 0 0
3:53 pm 15:53 Mostly Sunny 60 15.6 40 4.4 47 47 SSE 16 26 29.73 1007 10 16.0934 0 0
4:53 pm 16:53 Mostly Cloudy 60 15.6 37 2.8 42 42 S 10 17 29.72 1006 10 16.0934 0 0
5:53 pm 17:53 Mostly Cloudy 60 15.6 31 -0.6 33 33 SSW 15 24 29.7 1006 10 16.0934 0 0
6:53 pm 18:53 Partly Cloudy 56 13.3 34 1.1 44 44 S 16 26 29.7 1006 10 16.0934 0 0
7:31 pm 19:31 Mostly Clear with Nearby Thunderstorms 55 12.8 35 1.7 47 47 S 14 22 29.64 1004 10 16.0934 0 0
7:50 pm 19:50 Clear 55 13 36 2 47 47 SSW 8 13 29.64 1004 10 16.0934 0 0
7:53 pm 19:53 Clear 55 12.8 35 1.7 47 47 SSW 8 13 29.7 1006 10 16.0934 0 0
8:53 pm 20:53 Partly Cloudy 54 12.2 30 -1.1 40 40 W 21 33 29.71 1006 10 16.0934 0 0
9:53 pm 21:53 Clear 54 12.2 28 -2.2 37 37 W 25 41 29.7 1006 10 16.0934 0 0
10:53 pm 22:53 Partly Cloudy 52 11.1 30 -1.1 43 43 WSW 17 28 29.71 1006 10 16.0934 0.001 0.001
11:53 pm 23:53 Partly Cloudy 50 10 31 -0.6 48 48 SW 8 13 29.72 1007 10 16.0934 0 0

Powered by AerisWeather